Rutland, VT

1:27 PM EDT on March 27, 2017 (GMT -0400)
Rutland State

Weather History for KRUT - November, 2012

Change the Weather History Date:

Thursday, November 8, 2012

  Actual Average Record
Temperature  
Mean Temperature 32 °F -  
Max Temperature 36 °F - 71 °F (1975)
Min Temperature 28 °F - 15 °F (1992)
Degree Days  
Heating Degree Days 33    
Month to date heating degree days 237  
Since 1 July heating degree days 872  
Cooling Degree Days 0    
Month to date cooling degree days 0  
Year to date cooling degree days 411  
Moisture  
Dew Point 24 °F    
Average Humidity 76    
Maximum Humidity 89    
Minimum Humidity 63    
Precipitation  
Precipitation 0.00 in - 0.82 in (2006)
Month to date precipitation 0.00  
Year to date precipitation 21.48  
Sea Level Pressure  
Sea Level Pressure 29.88 in    
Wind  
Wind Speed 10 mph (NNW)    
Max Wind Speed 14 mph    
Max Gust Speed 25 mph    
Visibility 9 miles    
Events      
T = Trace of Precipitation, MM = Missing Value Source: NWS Daily Summary

Daily Weather History Graph

Daily Weather History Graph

Search for Another Location

Airport or City:

Trip Planner

Search our weather history database for the weather conditions in past years. The results will help you decide how hot, cold, wet, or windy it might be!

Date:

Astronomy

Nov. 08, 2012 Rise Set
Actual Time 6:37 AM EST 4:33 PM EST
Civil Twilight 6:06 AM EST 5:03 PM EST
Nautical Twilight 5:32 AM EST 5:38 PM EST
Astronomical Twilight 4:58 AM EST 6:11 PM EST
Moon 12:18 AM EST (11/8) 1:22 PM EST (11/8)
Length of Visible Light 10h 57m
Length of Day
9h 56m
Waning Crescent, 33% of the Moon is Illuminated
Nov 8
Waning Crescent
Nov 13
New
Nov 20
First Quarter
Nov 28
Full
Dec 6
Last Quarter

Hourly Weather History & Observations

Time (EST) Temp. Windchill Dew Point Humidity Pressure Visibility Wind Dir Wind Speed Gust Speed Precip Events Conditions
12:35 AM 30.2 °F 21.3 °F 19.4 °F 64% 29.91 in 10.0 mi NNW 10.4 mph 16.1 mph N/A   Overcast
12:55 AM 30.2 °F 20.8 °F 21.2 °F 69% 29.90 in 10.0 mi NNW 11.5 mph - N/A   Overcast
1:15 AM 30.2 °F 21.9 °F 21.2 °F 69% 29.90 in 10.0 mi North 9.2 mph - N/A   Overcast
1:35 AM 30.2 °F 20.8 °F 21.2 °F 69% 29.89 in 10.0 mi North 11.5 mph - N/A   Overcast
2:35 AM 30.2 °F 21.9 °F 21.2 °F 69% 29.88 in 10.0 mi North 9.2 mph 17.3 mph N/A   Overcast
2:55 AM 28.4 °F 19.1 °F 21.2 °F 74% 29.88 in 10.0 mi North 10.4 mph - N/A   Overcast
3:15 AM 28.4 °F 18.0 °F 21.2 °F 74% 29.87 in 10.0 mi North 12.7 mph - N/A   Overcast
3:35 AM 30.2 °F 22.6 °F 21.2 °F 69% 29.87 in 10.0 mi North 8.1 mph - N/A   Overcast
3:55 AM 28.4 °F 20.4 °F 21.2 °F 74% 29.87 in 10.0 mi North 8.1 mph - N/A   Overcast
4:15 AM 30.2 °F 21.3 °F 19.4 °F 64% 29.87 in 10.0 mi NNW 10.4 mph 16.1 mph N/A   Overcast
4:35 AM 30.2 °F 23.4 °F 21.2 °F 69% 29.87 in 10.0 mi North 6.9 mph - N/A   Overcast
4:55 AM 30.2 °F 21.9 °F 19.4 °F 64% 29.86 in 10.0 mi NNW 9.2 mph - N/A   Overcast
5:15 AM 30.2 °F 21.3 °F 19.4 °F 64% 29.87 in 10.0 mi NNW 10.4 mph - N/A   Overcast
5:36 AM 28.4 °F 19.7 °F 19.4 °F 69% 29.87 in 10.0 mi North 9.2 mph - N/A   Overcast
5:55 AM 28.4 °F 19.1 °F 19.4 °F 69% 29.87 in 10.0 mi North 10.4 mph - N/A   Overcast
6:15 AM 28.4 °F 19.7 °F 21.2 °F 74% 29.87 in 10.0 mi North 9.2 mph - N/A   Overcast
6:35 AM 28.4 °F 19.1 °F 19.4 °F 69% 29.87 in 10.0 mi North 10.4 mph 16.1 mph N/A   Overcast
6:55 AM 28.4 °F 20.4 °F 19.4 °F 69% 29.88 in 10.0 mi North 8.1 mph - N/A   Overcast
7:15 AM 28.4 °F 22.2 °F 21.2 °F 74% 29.89 in 10.0 mi NNW 5.8 mph - N/A   Overcast
7:35 AM 28.4 °F 19.1 °F 21.2 °F 74% 29.88 in 10.0 mi North 10.4 mph 18.4 mph N/A   Overcast
7:55 AM 28.4 °F 18.0 °F 21.2 °F 74% 29.88 in 10.0 mi NNW 12.7 mph 21.9 mph N/A   Overcast
8:15 AM 28.4 °F 19.7 °F 21.2 °F 74% 29.89 in 10.0 mi NNW 9.2 mph 18.4 mph N/A   Overcast
8:35 AM 28.4 °F 21.2 °F 21.2 °F 74% 29.88 in 10.0 mi NNW 6.9 mph - N/A   Overcast
8:55 AM 30.2 °F 20.8 °F 21.2 °F 69% 29.88 in 10.0 mi NNW 11.5 mph 16.1 mph N/A   Overcast
9:15 AM 30.2 °F 23.4 °F 21.2 °F 69% 29.88 in 10.0 mi NNW 6.9 mph - N/A   Mostly Cloudy
9:35 AM 30.2 °F 20.8 °F 21.2 °F 69% 29.88 in 10.0 mi NNW 11.5 mph 17.3 mph N/A   Overcast
9:55 AM 30.2 °F 21.3 °F 21.2 °F 69% 29.88 in 10.0 mi NNW 10.4 mph 18.4 mph N/A   Overcast
10:15 AM 30.2 °F 21.3 °F 21.2 °F 69% 29.87 in 10.0 mi NNW 10.4 mph 17.3 mph N/A   Overcast
10:35 AM 30.2 °F 23.4 °F 21.2 °F 69% 29.87 in 10.0 mi NNW 6.9 mph - N/A   Overcast
10:55 AM 32.0 °F 23.6 °F 21.2 °F 64% 29.86 in 10.0 mi North 10.4 mph 17.3 mph N/A   Overcast
11:15 AM 32.0 °F 24.8 °F 21.2 °F 64% 29.85 in 10.0 mi NNW 8.1 mph 19.6 mph N/A   Overcast
11:35 AM 32.0 °F 22.5 °F 23.0 °F 69% 29.85 in 10.0 mi NNW 12.7 mph 16.1 mph N/A   Overcast
11:55 AM 32.0 °F 22.5 °F 23.0 °F 69% 29.85 in 10.0 mi NW 12.7 mph 17.3 mph N/A   Mostly Cloudy
12:15 PM 32.0 °F 23.6 °F 23.0 °F 69% 29.85 in 10.0 mi NNW 10.4 mph - N/A   Scattered Clouds
12:35 PM 33.8 °F 25.3 °F 23.0 °F 65% 29.84 in 10.0 mi NNW 11.5 mph 19.6 mph N/A   Mostly Cloudy
12:55 PM 33.8 °F 26.4 °F 24.8 °F 70% 29.84 in 10.0 mi NNW 9.2 mph 17.3 mph N/A   Overcast
1:15 PM 33.8 °F 25.3 °F 24.8 °F 70% 29.84 in 10.0 mi NNW 11.5 mph 17.3 mph N/A   Overcast
1:35 PM 33.8 °F 23.9 °F 24.8 °F 70% 29.84 in 10.0 mi NNW 15.0 mph 18.4 mph N/A   Overcast
1:55 PM 32.0 °F 23.0 °F 24.8 °F 75% 29.84 in 10.0 mi NNW 11.5 mph 23.0 mph N/A   Overcast
2:15 PM 33.8 °F 25.3 °F 24.8 °F 70% 29.85 in 10.0 mi NNW 11.5 mph 23.0 mph N/A   Overcast
2:35 PM 33.8 °F 24.3 °F 24.8 °F 70% 29.85 in 10.0 mi NNW 13.8 mph 19.6 mph N/A   Overcast
2:55 PM 33.8 °F 24.3 °F 24.8 °F 70% 29.85 in 10.0 mi NNW 13.8 mph 20.7 mph N/A   Overcast
3:15 PM 33.8 °F 24.3 °F 26.6 °F 75% 29.85 in 10.0 mi NW 13.8 mph 19.6 mph N/A   Overcast
3:35 PM 33.8 °F 25.3 °F 26.6 °F 75% 29.86 in 10.0 mi NNW 11.5 mph 21.9 mph N/A   Overcast
3:55 PM 33.8 °F 25.3 °F 26.6 °F 75% 29.86 in 10.0 mi NNW 11.5 mph 24.2 mph N/A   Overcast
4:15 PM 33.8 °F 24.8 °F 26.6 °F 75% 29.87 in 10.0 mi NNW 12.7 mph 20.7 mph N/A   Overcast
4:35 PM 33.8 °F 24.3 °F 26.6 °F 75% 29.87 in 8.0 mi NNW 13.8 mph 18.4 mph N/A   Overcast
4:55 PM 33.8 °F 25.3 °F 26.6 °F 75% 29.87 in 5.0 mi NNW 11.5 mph 18.4 mph N/A   Overcast
5:15 PM 33.8 °F 27.0 °F 28.4 °F 81% 29.88 in 9.0 mi NNW 8.1 mph 16.1 mph N/A   Overcast
5:35 PM 33.8 °F 25.3 °F 28.4 °F 81% 29.89 in 7.0 mi NNW 11.5 mph 19.6 mph N/A   Overcast
5:55 PM 33.8 °F 27.0 °F 28.4 °F 81% 29.89 in 7.0 mi NNW 8.1 mph 20.7 mph N/A   Overcast
6:15 PM 33.8 °F 25.8 °F 28.4 °F 81% 29.90 in 4.0 mi NNW 10.4 mph 17.3 mph N/A   Overcast
6:35 PM 33.8 °F 25.8 °F 28.4 °F 81% 29.91 in 4.0 mi NNW 10.4 mph - N/A   Overcast
6:55 PM 32.0 °F 23.6 °F 28.4 °F 87% 29.91 in 3.0 mi NNW 10.4 mph - N/A   Overcast
7:15 PM 32.0 °F 25.6 °F 30.2 °F 93% 29.91 in 4.0 mi NNW 6.9 mph - N/A   Overcast
7:35 PM 32.0 °F 27.5 °F 30.2 °F 93% 29.91 in 5.0 mi NNW 4.6 mph - N/A   Overcast
7:55 PM 33.8 °F 28.6 °F 30.2 °F 87% 29.91 in 3.0 mi NNW 5.8 mph - N/A   Overcast
8:15 PM 33.8 °F 27.0 °F 30.2 °F 87% 29.91 in 3.0 mi NNW 8.1 mph - 0.01 in   Overcast
8:35 PM 33.8 °F 26.4 °F 30.2 °F 87% 29.91 in 7.0 mi NNW 9.2 mph - 0.01 in   Overcast
9:15 PM 33.8 °F 25.3 °F 28.4 °F 81% 29.91 in 10.0 mi NNW 11.5 mph 20.7 mph N/A   Overcast
9:35 PM 33.8 °F 24.3 °F 28.4 °F 81% 29.91 in 10.0 mi NNW 13.8 mph 24.2 mph N/A   Overcast
9:55 PM 33.8 °F 24.8 °F 26.6 °F 75% 29.91 in 10.0 mi NNW 12.7 mph 25.3 mph N/A   Overcast
10:15 PM 33.8 °F 24.3 °F 26.6 °F 75% 29.91 in 10.0 mi NNW 13.8 mph 19.6 mph N/A   Overcast
10:35 PM 35.6 °F 28.0 °F 26.6 °F 70% 29.91 in 10.0 mi NNW 10.4 mph 20.7 mph N/A   Overcast
10:55 PM 33.8 °F 27.0 °F 26.6 °F 75% 29.90 in 10.0 mi NW 8.1 mph 17.3 mph N/A   Overcast
11:15 PM 33.8 °F 28.6 °F 26.6 °F 75% 29.91 in 10.0 mi NW 5.8 mph - N/A   Overcast
11:35 PM 33.8 °F 29.6 °F 26.6 °F 75% 29.90 in 10.0 mi NW 4.6 mph - N/A   Overcast